Location: Charbonni�res
(45.9952°N, 2.9982°E)
Time: 17:26:14
(UTC+00:00)

Cosmos 1707 Rocket - Pass Details

Date: 29 November 2020
Orbit: 605 x 631 km, 82.5° (Epoch: 17 January)

Event Time Altitude Azimuth Distance (km) Brightness Sun altitude
Rises 06:00:18 0° 352° (N) 2,883 6.7 -11.4°
Reaches altitude 10° 06:02:33 10° 355° (N) 1,971 5.9 -11.0°
Maximum altitude 06:06:54 73° 80° (E) 640 3.8 -10.3°
Drops below altitude 10° 06:11:12 10° 165° (SSE) 1,948 6.6 -9.6°
Sets 06:13:25 0° 168° (SSE) 2,847 7.5 -9.2°
